| time (UTC) | temp C | wind direction | speed KPH | gust KPH | rain 1hr cm | rain 24hr cm | rain mn cm | humidity % | barometer mb |
| 20260507210741 | 16 | 101 | 0.0 | 1.6 | 0.00 | 0.00 | 0.00 | 80 | 1016.2 |
| 20260507210042 | 16 | 101 | 0.0 | 3.2 | 0.00 | 0.00 | 0.00 | 80 | 1016.2 |
| 20260507205641 | 16 | 101 | 0.0 | 3.2 | 0.00 | 0.00 | 0.00 | 80 | 1016.2 |
| 20260507205043 | 16 | 101 | 0.0 | 3.2 | 0.00 | 0.00 | 0.00 | 80 | 1016.0 |
| 20260507204541 | 16 | 101 | 0.0 | 3.2 | 0.00 | 0.00 | 0.00 | 80 | 1016.0 |
| 20260507204042 | 16 | 101 | 1.6 | 1.6 | 0.00 | 0.00 | 0.00 | 80 | 1016.0 |
| 20260507203441 | 16 | 101 | 0.0 | 1.6 | 0.00 | 0.00 | 0.00 | 80 | 1015.9 |
| 20260507203042 | 16 | 101 | 0.0 | 3.2 | 0.00 | 0.00 | 0.00 | 80 | 1015.9 |
| 20260507202342 | 16 | 101 | 0.0 | 3.2 | 0.00 | 0.00 | 0.00 | 80 | 1016.0 |
| 20260507202043 | 16 | 5 | 0.0 | 1.6 | 0.00 | 0.00 | 0.00 | 80 | 1015.9 |
| 20260507201242 | 16 | 5 | 0.0 | 1.6 | 0.00 | 0.00 | 0.00 | 79 | 1015.7 |
| 20260507201043 | 16 | 5 | 0.0 | 1.6 | 0.00 | 0.00 | 0.00 | 79 | 1015.8 |
| 20260507200142 | 16 | 5 | 0.0 | 1.6 | 0.00 | 0.00 | 0.00 | 78 | 1015.7 |
| 20260507200044 | 16 | 5 | 0.0 | 1.6 | 0.00 | 0.00 | 0.00 | 78 | 1015.7 |
| 20260507195042 | 16 | 5 | 0.0 | 0.0 | 0.00 | 0.00 | 0.00 | 77 | 1015.6 |
| 20260507194043 | 16 | 5 | 0.0 | 1.6 | 0.00 | 0.00 | 0.00 | 77 | 1015.5 |
| 20260507193942 | 17 | 5 | 0.0 | 1.6 | 0.00 | 0.00 | 0.00 | 77 | 1015.5 |
| 20260507193044 | 17 | 5 | 0.0 | 1.6 | 0.00 | 0.00 | 0.00 | 76 | 1015.4 |
| 20260507192842 | 17 | 5 | 0.0 | 1.6 | 0.00 | 0.00 | 0.00 | 76 | 1015.4 |
| 20260507192043 | 17 | 5 | 0.0 | 4.8 | 0.00 | 0.00 | 0.00 | 76 | 1015.4 |
| 20260507191742 | 17 | 5 | 0.0 | 4.8 | 0.00 | 0.00 | 0.00 | 76 | 1015.3 |
| 20260507191043 | 17 | 5 | 1.6 | 3.2 | 0.00 | 0.00 | 0.00 | 76 | 1015.3 |
| 20260507190642 | 17 | 5 | 0.0 | 4.8 | 0.00 | 0.00 | 0.00 | 76 | 1015.4 |
| 20260507190043 | 17 | 5 | 1.6 | 4.8 | 0.00 | 0.00 | 0.00 | 76 | 1015.3 |
| 20260507185542 | 17 | 10 | 1.6 | 4.8 | 0.00 | 0.00 | 0.00 | 76 | 1015.3 |
| 20260507185043 | 17 | 5 | 1.6 | 4.8 | 0.00 | 0.00 | 0.00 | 75 | 1015.3 |
| 20260507184442 | 17 | 16 | 3.2 | 3.2 | 0.00 | 0.00 | 0.00 | 75 | 1015.2 |
| 20260507184043 | 17 | 274 | 0.0 | 0.0 | 0.00 | 0.00 | 0.00 | 75 | 1015.2 |
| 20260507183342 | 17 | 274 | 0.0 | 0.0 | 0.00 | 0.00 | 0.00 | 75 | 1015.3 |
| 20260507183043 | 17 | 274 | 0.0 | 0.0 | 0.00 | 0.00 | 0.00 | 75 | 1015.2 |
| 20260507182242 | 17 | 274 | 0.0 | 0.0 | 0.00 | 0.00 | 0.00 | 75 | 1015.1 |
| 20260507182043 | 17 | 274 | 0.0 | 0.0 | 0.00 | 0.00 | 0.00 | 74 | 1015.2 |
| 20260507181142 | 17 | 274 | 0.0 | 6.4 | 0.00 | 0.00 | 0.00 | 74 | 1015.3 |
| 20260507181043 | 17 | 274 | 0.0 | 6.4 | 0.00 | 0.00 | 0.00 | 73 | 1015.2 |
| 20260507180042 | 18 | 287 | 3.2 | 8.0 | 0.00 | 0.00 | 0.00 | 73 | 1015.2 |
| 20260507175044 | 18 | 280 | 1.6 | 6.4 | 0.00 | 0.00 | 0.00 | 74 | 1015.3 |
| 20260507174942 | 18 | 300 | 0.0 | 6.4 | 0.00 | 0.00 | 0.00 | 74 | 1015.2 |
| 20260507174042 | 18 | 273 | 1.6 | 6.4 | 0.00 | 0.00 | 0.00 | 73 | 1015.3 |
| 20260507173841 | 18 | 277 | 3.2 | 6.4 | 0.00 | 0.00 | 0.00 | 73 | 1015.3 |
| 20260507173042 | 18 | 277 | 3.2 | 6.4 | 0.00 | 0.00 | 0.00 | 73 | 1015.1 |
| 20260507172741 | 18 | 273 | 3.2 | 6.4 | 0.00 | 0.00 | 0.00 | 72 | 1015.0 |
| 20260507172043 | 18 | 294 | 4.8 | 6.4 | 0.00 | 0.00 | 0.00 | 72 | 1015.0 |
| 20260507171641 | 18 | 265 | 4.8 | 6.4 | 0.00 | 0.00 | 0.00 | 71 | 1014.9 |
| 20260507171043 | 18 | 262 | 3.2 | 4.8 | 0.00 | 0.00 | 0.00 | 71 | 1014.9 |
| 20260507170541 | 19 | 246 | 3.2 | 6.4 | 0.00 | 0.00 | 0.00 | 71 | 1015.0 |
| 20260507170042 | 19 | 260 | 3.2 | 9.7 | 0.00 | 0.00 | 0.00 | 71 | 1014.9 |
| 20260507165441 | 19 | 250 | 6.4 | 8.0 | 0.00 | 0.00 | 0.00 | 71 | 1015.0 |
| 20260507165043 | 20 | 267 | 3.2 | 4.8 | 0.00 | 0.00 | 0.00 | 70 | 1014.9 |
| 20260507164341 | 20 | 277 | 3.2 | 4.8 | 0.00 | 0.00 | 0.00 | 69 | 1014.7 |
| 20260507164043 | 20 | 277 | 1.6 | 4.8 | 0.00 | 0.00 | 0.00 | 68 | 1014.8 |
| 20260507163241 | 20 | 272 | 0.0 | 3.2 | 0.00 | 0.00 | 0.00 | 68 | 1014.6 |
| 20260507163043 | 20 | 283 | 3.2 | 9.7 | 0.00 | 0.00 | 0.00 | 67 | 1014.7 |
| 20260507162141 | 20 | 279 | 1.6 | 6.4 | 0.00 | 0.00 | 0.00 | 66 | 1014.6 |
| 20260507162043 | 20 | 277 | 1.6 | 6.4 | 0.00 | 0.00 | 0.00 | 66 | 1014.6 |
| 20260507161041 | 20 | 254 | 3.2 | 6.4 | 0.00 | 0.00 | 0.00 | 65 | 1014.5 |
| 20260507160043 | 21 | 267 | 1.6 | 6.4 | 0.00 | 0.00 | 0.00 | 65 | 1014.6 |
| 20260507155941 | 21 | 265 | 3.2 | 6.4 | 0.00 | 0.00 | 0.00 | 64 | 1014.5 |
| 20260507155043 | 21 | 269 | 4.8 | 6.4 | 0.00 | 0.00 | 0.00 | 64 | 1014.6 |
| 20260507154841 | 21 | 275 | 1.6 | 6.4 | 0.00 | 0.00 | 0.00 | 64 | 1014.6 |
| 20260507154044 | 21 | 263 | 4.8 | 14.5 | 0.00 | 0.00 | 0.00 | 62 | 1014.6 |
| 20260507153741 | 21 | 266 | 9.7 | 12.9 | 0.00 | 0.00 | 0.00 | 63 | 1014.6 |
| 20260507153042 | 21 | 248 | 8.0 | 14.5 | 0.00 | 0.00 | 0.00 | 63 | 1014.5 |
| 20260507152641 | 21 | 271 | 9.7 | 12.9 | 0.00 | 0.00 | 0.00 | 63 | 1014.6 |
| 20260507152043 | 21 | 242 | 9.7 | 19.3 | 0.00 | 0.00 | 0.00 | 63 | 1014.5 |
| 20260507151541 | 21 | 262 | 11.3 | 19.3 | 0.00 | 0.00 | 0.00 | 61 | 1014.5 |
| 20260507151042 | 21 | 250 | 14.5 | 16.1 | 0.00 | 0.00 | 0.00 | 62 | 1014.6 |
| 20260507150441 | 21 | 271 | 4.8 | 14.5 | 0.00 | 0.00 | 0.00 | 62 | 1014.6 |
| 20260507150043 | 21 | 240 | 6.4 | 14.5 | 0.00 | 0.00 | 0.00 | 63 | 1014.5 |
| 20260507145341 | 22 | 260 | 4.8 | 6.4 | 0.00 | 0.00 | 0.00 | 63 | 1014.5 |
| 20260507145042 | 22 | 279 | 3.2 | 6.4 | 0.00 | 0.00 | 0.00 | 65 | 1014.5 |
| 20260507144241 | 21 | 246 | 3.2 | 6.4 | 0.00 | 0.00 | 0.00 | 64 | 1014.5 |
| 20260507144042 | 21 | 290 | 3.2 | 6.4 | 0.00 | 0.00 | 0.00 | 63 | 1014.5 |
| 20260507143141 | 22 | 254 | 1.6 | 14.5 | 0.00 | 0.00 | 0.00 | 64 | 1014.5 |
| 20260507143042 | 22 | 240 | 0.0 | 14.5 | 0.00 | 0.00 | 0.00 | 63 | 1014.5 |
| 20260507142041 | 22 | 270 | 4.8 | 8.0 | 0.00 | 0.00 | 0.00 | 63 | 1014.6 |
| 20260507141044 | 22 | 280 | 3.2 | 8.0 | 0.00 | 0.00 | 0.00 | 64 | 1014.7 |
| 20260507140941 | 22 | 271 | 3.2 | 8.0 | 0.00 | 0.00 | 0.00 | 63 | 1014.7 |
| 20260507140042 | 21 | 257 | 4.8 | 8.0 | 0.00 | 0.00 | 0.00 | 65 | 1014.8 |
| 20260507135841 | 21 | 283 | 3.2 | 8.0 | 0.00 | 0.00 | 0.00 | 65 | 1014.8 |
| 20260507135042 | 21 | 269 | 1.6 | 11.3 | 0.00 | 0.00 | 0.00 | 63 | 1014.8 |
| 20260507134741 | 21 | 259 | 4.8 | 11.3 | 0.00 | 0.00 | 0.00 | 64 | 1014.8 |
| 20260507134042 | 21 | 265 | 3.2 | 16.1 | 0.00 | 0.00 | 0.00 | 65 | 1014.9 |
| 20260507133641 | 21 | 256 | 8.0 | 16.1 | 0.00 | 0.00 | 0.00 | 65 | 1014.9 |
| 20260507133042 | 21 | 246 | 11.3 | 16.1 | 0.00 | 0.00 | 0.00 | 64 | 1014.9 |
| 20260507132541 | 21 | 277 | 6.4 | 16.1 | 0.00 | 0.00 | 0.00 | 65 | 1014.9 |
| 20260507132043 | 21 | 277 | 4.8 | 14.5 | 0.00 | 0.00 | 0.00 | 65 | 1014.9 |
| 20260507131441 | 21 | 240 | 8.0 | 11.3 | 0.00 | 0.00 | 0.00 | 64 | 1014.9 |
| 20260507131042 | 21 | 257 | 3.2 | 12.9 | 0.00 | 0.00 | 0.00 | 64 | 1014.9 |
| 20260507130341 | 21 | 249 | 6.4 | 12.9 | 0.00 | 0.00 | 0.00 | 64 | 1014.9 |
| 20260507130042 | 21 | 269 | 6.4 | 9.7 | 0.00 | 0.00 | 0.00 | 64 | 1014.9 |
| 20260507125241 | 21 | 277 | 3.2 | 11.3 | 0.00 | 0.00 | 0.00 | 61 | 1014.9 |
| 20260507125043 | 21 | 271 | 3.2 | 11.3 | 0.00 | 0.00 | 0.00 | 61 | 1015.0 |
| 20260507124141 | 22 | 249 | 4.8 | 14.5 | 0.00 | 0.00 | 0.00 | 60 | 1015.0 |
| 20260507124042 | 22 | 241 | 8.0 | 12.9 | 0.00 | 0.00 | 0.00 | 59 | 1015.1 |
| 20260507123041 | 22 | 243 | 4.8 | 14.5 | 0.00 | 0.00 | 0.00 | 57 | 1014.9 |
| 20260507122044 | 23 | 252 | 11.3 | 16.1 | 0.00 | 0.00 | 0.00 | 57 | 1015.0 |
| 20260507121941 | 23 | 269 | 6.4 | 16.1 | 0.00 | 0.00 | 0.00 | 57 | 1015.0 |
| 20260507121042 | 23 | 252 | 6.4 | 12.9 | 0.00 | 0.00 | 0.00 | 56 | 1015.1 |
| 20260507120841 | 23 | 246 | 6.4 | 12.9 | 0.00 | 0.00 | 0.00 | 56 | 1015.2 |
| 20260507120042 | 23 | 233 | 1.6 | 14.5 | 0.00 | 0.00 | 0.00 | 55 | 1015.2 |
| 20260507115741 | 23 | 253 | 12.9 | 14.5 | 0.00 | 0.00 | 0.00 | 56 | 1015.2 |
| 20260507115042 | 23 | 219 | 6.4 | 11.3 | 0.00 | 0.00 | 0.00 | 55 | 1015.3 |
| 20260507114641 | 23 | 242 | 1.6 | 16.1 | 0.00 | 0.00 | 0.00 | 53 | 1015.3 |
| 20260507114042 | 23 | 311 | 4.8 | 16.1 | 0.00 | 0.00 | 0.00 | 55 | 1015.4 |
| 20260507113541 | 23 | 212 | 1.6 | 11.3 | 0.00 | 0.00 | 0.00 | 55 | 1015.2 |
| 20260507113042 | 23 | 163 | 3.2 | 12.9 | 0.00 | 0.00 | 0.00 | 55 | 1015.2 |
| 20260507112441 | 22 | 218 | 3.2 | 12.9 | 0.00 | 0.00 | 0.00 | 56 | 1015.2 |
| 20260507112043 | 22 | 276 | 3.2 | 8.0 | 0.00 | 0.00 | 0.00 | 56 | 1015.3 |
| 20260507111341 | 22 | 53 | 1.6 | 4.8 | 0.00 | 0.00 | 0.00 | 58 | 1015.3 |
| 20260507111042 | 22 | 227 | 3.2 | 4.8 | 0.00 | 0.00 | 0.00 | 58 | 1015.3 |
| 20260507110241 | 22 | 252 | 1.6 | 6.4 | 0.00 | 0.00 | 0.00 | 58 | 1015.3 |
| 20260507110042 | 21 | 13 | 0.0 | 8.0 | 0.00 | 0.00 | 0.00 | 59 | 1015.3 |
| 20260507105141 | 21 | 266 | 3.2 | 12.9 | 0.00 | 0.00 | 0.00 | 60 | 1015.4 |
| 20260507105044 | 21 | 250 | 8.0 | 12.9 | 0.00 | 0.00 | 0.00 | 60 | 1015.4 |
| 20260507104042 | 21 | 236 | 3.2 | 11.3 | 0.00 | 0.00 | 0.00 | 60 | 1015.4 |
| 20260507103044 | 20 | 252 | 6.4 | 16.1 | 0.00 | 0.00 | 0.00 | 60 | 1015.5 |
| 20260507102942 | 20 | 248 | 6.4 | 16.1 | 0.00 | 0.00 | 0.00 | 61 | 1015.4 |
| 20260507102044 | 20 | 271 | 0.0 | 8.0 | 0.00 | 0.00 | 0.00 | 66 | 1015.6 |
| 20260507101842 | 19 | 203 | 0.0 | 8.0 | 0.00 | 0.00 | 0.00 | 65 | 1015.6 |
| 20260507101043 | 18 | 219 | 1.6 | 6.4 | 0.00 | 0.00 | 0.00 | 69 | 1015.7 |
| 20260507100742 | 18 | 231 | 0.0 | 6.4 | 0.00 | 0.00 | 0.00 | 68 | 1015.7 |
| 20260507100043 | 18 | 150 | 4.8 | 6.4 | 0.00 | 0.00 | 0.00 | 68 | 1015.8 |
| 20260507095642 | 18 | 138 | 4.8 | 6.4 | 0.00 | 0.00 | 0.00 | 70 | 1015.8 |
| 20260507095043 | 18 | 156 | 0.0 | 4.8 | 0.00 | 0.00 | 0.00 | 70 | 1015.8 |
| 20260507094542 | 17 | 207 | 0.0 | 4.8 | 0.00 | 0.00 | 0.00 | 71 | 1016.0 |
| 20260507094043 | 17 | 246 | 0.0 | 3.2 | 0.00 | 0.00 | 0.00 | 70 | 1016.0 |
| 20260507093442 | 17 | 146 | 3.2 | 4.8 | 0.00 | 0.00 | 0.00 | 71 | 1016.0 |
| 20260507093044 | 17 | 153 | 1.6 | 4.8 | 0.00 | 0.00 | 0.00 | 70 | 1016.0 |
| 20260507092342 | 17 | 225 | 1.6 | 4.8 | 0.00 | 0.00 | 0.00 | 71 | 1015.8 |
| 20260507092044 | 17 | 236 | 0.0 | 3.2 | 0.00 | 0.00 | 0.00 | 70 | 1015.8 |
| 20260507091242 | 17 | 232 | 0.0 | 4.8 | 0.00 | 0.00 | 0.00 | 72 | 1015.8 |
| 20260507091043 | 17 | 232 | 0.0 | 4.8 | 0.00 | 0.00 | 0.00 | 71 | 1015.8 |
| 20260507090142 | 17 | 146 | 0.0 | 4.8 | 0.00 | 0.00 | 0.00 | 72 | 1015.8 |
| 20260507090043 | 17 | 146 | 0.0 | 4.8 | 0.00 | 0.00 | 0.00 | 71 | 1015.8 |
| 20260507085042 | 17 | 211 | 0.0 | 4.8 | 0.00 | 0.00 | 0.00 | 69 | 1015.7 |
| 20260507084044 | 17 | 212 | 0.0 | 6.4 | 0.00 | 0.00 | 0.00 | 70 | 1015.6 |
| 20260507084007 | 17 | 206 | 0.0 | 6.4 | 0.00 | 0.00 | 0.00 | 69 | 1015.6 |
| 20260507083043 | 17 | 209 | 0.0 | 8.0 | 0.00 | 0.00 | 0.00 | 71 | 1015.6 |
| 20260507082044 | 17 | 235 | 1.6 | 6.4 | 0.00 | 0.00 | 0.00 | 73 | 1015.7 |
| 20260507081742 | 17 | 245 | 3.2 | 6.4 | 0.00 | 0.00 | 0.00 | 72 | 1015.7 |
| 20260507081042 | 17 | 200 | 1.6 | 9.7 | 0.00 | 0.00 | 0.00 | 72 | 1015.7 |
| 20260507080642 | 17 | 223 | 4.8 | 9.7 | 0.00 | 0.00 | 0.00 | 72 | 1015.7 |
| 20260507080042 | 17 | 243 | 4.8 | 8.0 | 0.00 | 0.00 | 0.00 | 72 | 1015.7 |
| 20260507075541 | 17 | 209 | 8.0 | 8.0 | 0.00 | 0.00 | 0.00 | 72 | 1015.7 |
| 20260507075044 | 17 | 233 | 3.2 | 6.4 | 0.00 | 0.00 | 0.00 | 71 | 1015.8 |
| 20260507074441 | 17 | 244 | 0.0 | 6.4 | 0.00 | 0.00 | 0.00 | 72 | 1015.7 |
| 20260507073341 | 17 | 227 | 3.2 | 9.7 | 0.00 | 0.00 | 0.00 | 73 | 1015.6 |
| 20260507072241 | 16 | 236 | 4.8 | 6.4 | 0.00 | 0.00 | 0.00 | 75 | 1015.6 |
| 20260507072044 | 16 | 171 | 1.6 | 8.0 | 0.00 | 0.00 | 0.00 | 76 | 1015.6 |
| 20260507071141 | 16 | 215 | 3.2 | 8.0 | 0.00 | 0.00 | 0.00 | 76 | 1015.6 |
| 20260507071044 | 16 | 254 | 8.0 | 8.0 | 0.00 | 0.00 | 0.00 | 76 | 1015.6 |
| 20260507070041 | 16 | 224 | 3.2 | 9.7 | 0.00 | 0.00 | 0.00 | 77 | 1015.6 |
| 20260507064941 | 16 | 238 | 9.7 | 11.3 | 0.00 | 0.00 | 0.00 | 76 | 1015.7 |
| 20260507063842 | 16 | 212 | 1.6 | 11.3 | 0.00 | 0.00 | 0.00 | 76 | 1015.7 |
| 20260507062741 | 16 | 198 | 1.6 | 12.9 | 0.00 | 0.00 | 0.00 | 76 | 1015.4 |
| 20260507061641 | 16 | 217 | 4.8 | 14.5 | 0.00 | 0.00 | 0.00 | 76 | 1015.4 |
| 20260507060541 | 16 | 211 | 8.0 | 9.7 | 0.00 | 0.00 | 0.00 | 75 | 1015.5 |
| 20260507055441 | 16 | 190 | 0.0 | 6.4 | 0.00 | 0.00 | 0.00 | 75 | 1015.5 |
| 20260507054341 | 16 | 227 | 0.0 | 12.9 | 0.00 | 0.00 | 0.00 | 75 | 1015.5 |
| 20260507053241 | 16 | 215 | 0.0 | 9.7 | 0.00 | 0.00 | 0.00 | 75 | 1015.5 |
| 20260507052141 | 16 | 153 | 3.2 | 6.4 | 0.00 | 0.00 | 0.00 | 77 | 1015.3 |
| 20260507051041 | 16 | 152 | 1.6 | 6.4 | 0.00 | 0.00 | 0.00 | 76 | 1015.2 |
| 20260507045941 | 16 | 155 | 3.2 | 8.0 | 0.00 | 0.00 | 0.00 | 75 | 1015.1 |
| 20260507044841 | 15 | 170 | 0.0 | 1.6 | 0.00 | 0.00 | 0.00 | 76 | 1015.0 |
| 20260507043741 | 16 | 213 | 0.0 | 3.2 | 0.00 | 0.00 | 0.00 | 77 | 1015.1 |
| 20260507042641 | 16 | 267 | 3.2 | 6.4 | 0.00 | 0.00 | 0.00 | 75 | 1015.0 |
| 20260507041541 | 16 | 224 | 3.2 | 4.8 | 0.00 | 0.00 | 0.00 | 75 | 1014.8 |
| 20260507040441 | 16 | 232 | 4.8 | 8.0 | 0.00 | 0.00 | 0.00 | 75 | 1014.7 |
| 20260507035341 | 16 | 232 | 1.6 | 6.4 | 0.00 | 0.00 | 0.00 | 76 | 1014.6 |
| 20260507035043 | 16 | 138 | 0.0 | 3.2 | 0.00 | 0.00 | 0.00 | 76 | 1014.5 |
| 20260507034241 | 16 | 138 | 1.6 | 6.4 | 0.00 | 0.00 | 0.00 | 76 | 1014.4 |
| 20260507033141 | 16 | 156 | 0.0 | 4.8 | 0.00 | 0.00 | 0.00 | 78 | 1014.3 |
| 20260507032041 | 16 | 223 | 0.0 | 1.6 | 0.00 | 0.00 | 0.00 | 79 | 1014.3 |
| 20260507031046 | 16 | 223 | 0.0 | 1.6 | 0.00 | 0.00 | 0.00 | 79 | 1014.2 |
| 20260507030941 | 16 | 223 | 0.0 | 1.6 | 0.00 | 0.00 | 0.00 | 79 | 1014.2 |
| 20260507025841 | 16 | 223 | 0.0 | 1.6 | 0.00 | 0.00 | 0.00 | 79 | 1014.1 |
| 20260507024741 | 16 | 223 | 0.0 | 4.8 | 0.00 | 0.00 | 0.00 | 79 | 1014.0 |
| 20260507023641 | 16 | 229 | 1.6 | 3.2 | 0.00 | 0.00 | 0.00 | 79 | 1014.0 |
| 20260507022541 | 16 | 240 | 0.0 | 0.0 | 0.00 | 0.00 | 0.00 | 79 | 1013.9 |
| 20260507022042 | 16 | 240 | 0.0 | 1.6 | 0.00 | 0.00 | 0.00 | 79 | 1013.7 |
| 20260507021441 | 16 | 240 | 0.0 | 4.8 | 0.00 | 0.00 | 0.00 | 79 | 1013.7 |
| 20260507021042 | 16 | 240 | 1.6 | 6.4 | 0.00 | 0.00 | 0.00 | 79 | 1013.7 |
| 20260507020341 | 16 | 249 | 3.2 | 6.4 | 0.00 | 0.00 | 0.00 | 79 | 1013.8 |
| 20260507020042 | 16 | 245 | 3.2 | 6.4 | 0.00 | 0.00 | 0.00 | 79 | 1013.7 |
| 20260507015241 | 16 | 260 | 3.2 | 4.8 | 0.00 | 0.00 | 0.00 | 79 | 1013.6 |
| 20260507015042 | 16 | 242 | 3.2 | 3.2 | 0.00 | 0.00 | 0.00 | 79 | 1013.6 |
| 20260507014141 | 16 | 281 | 0.0 | 3.2 | 0.00 | 0.00 | 0.00 | 78 | 1013.5 |
| 20260507014042 | 16 | 281 | 0.0 | 3.2 | 0.00 | 0.00 | 0.00 | 78 | 1013.5 |
| 20260507013053 | 16 | 286 | 1.6 | 3.2 | 0.00 | 0.00 | 0.00 | 78 | 1013.5 |
| 20260507012040 | 16 | 290 | 1.6 | 4.8 | 0.00 | 0.00 | 0.00 | 78 | 1013.3 |
| 20260507011042 | 16 | 296 | 0.0 | 1.6 | 0.00 | 0.00 | 0.00 | 77 | 1013.2 |
| 20260507010940 | 16 | 296 | 0.0 | 1.6 | 0.00 | 0.00 | 0.00 | 77 | 1013.4 |
| 20260507010041 | 16 | 296 | 0.0 | 1.6 | 0.00 | 0.00 | 0.00 | 76 | 1013.3 |
| 20260507005840 | 16 | 289 | 1.6 | 1.6 | 0.00 | 0.00 | 0.00 | 76 | 1013.2 |
| 20260507005041 | 16 | 252 | 0.0 | 4.8 | 0.00 | 0.00 | 0.00 | 75 | 1013.2 |
| 20260507004740 | 16 | 252 | 0.0 | 4.8 | 0.00 | 0.00 | 0.00 | 75 | 1013.2 |
| 20260507004041 | 16 | 275 | 3.2 | 3.2 | 0.00 | 0.00 | 0.00 | 74 | 1013.2 |
| 20260507003640 | 17 | 300 | 1.6 | 3.2 | 0.00 | 0.00 | 0.00 | 73 | 1013.2 |
| 20260507003043 | 17 | 285 | 0.0 | 3.2 | 0.00 | 0.00 | 0.00 | 73 | 1013.2 |
| 20260507002541 | 17 | 294 | 0.0 | 3.2 | 0.00 | 0.00 | 0.00 | 72 | 1013.3 |
| 20260507002042 | 17 | 294 | 1.6 | 6.4 | 0.00 | 0.00 | 0.00 | 71 | 1013.2 |
| 20260507001441 | 17 | 286 | 0.0 | 6.4 | 0.00 | 0.00 | 0.00 | 71 | 1013.1 |
| 20260507001042 | 17 | 267 | 1.6 | 4.8 | 0.00 | 0.00 | 0.00 | 70 | 1013.3 |
| 20260507000343 | 17 | 289 | 3.2 | 6.4 | 0.00 | 0.00 | 0.00 | 69 | 1013.3 |
| 20260507000043 | 17 | 261 | 3.2 | 6.4 | 0.00 | 0.00 | 0.00 | 69 | 1013.4 |
| 20260506235241 | 18 | 259 | 1.6 | 8.0 | 0.00 | 0.00 | 0.00 | 68 | 1013.2 |
| 20260506235042 | 18 | 297 | 4.8 | 8.0 | 0.00 | 0.00 | 0.00 | 67 | 1013.2 |
| 20260506234141 | 18 | 253 | 4.8 | 8.0 | 0.00 | 0.00 | 0.00 | 66 | 1013.1 |
| 20260506234042 | 18 | 243 | 6.4 | 8.0 | 0.00 | 0.00 | 0.00 | 66 | 1013.2 |
| 20260506233041 | 18 | 256 | 8.0 | 14.5 | 0.00 | 0.00 | 0.00 | 66 | 1013.2 |
| 20260506232045 | 18 | 255 | 6.4 | 12.9 | 0.00 | 0.00 | 0.00 | 65 | 1013.2 |
| 20260506231941 | 18 | 253 | 8.0 | 11.3 | 0.00 | 0.00 | 0.00 | 65 | 1013.2 |
| 20260506231042 | 18 | 296 | 8.0 | 14.5 | 0.00 | 0.00 | 0.00 | 64 | 1013.2 |
| 20260506230841 | 18 | 288 | 6.4 | 14.5 | 0.00 | 0.00 | 0.00 | 63 | 1013.1 |
| 20260506230042 | 18 | 305 | 6.4 | 11.3 | 0.00 | 0.00 | 0.00 | 62 | 1013.0 |
| 20260506225741 | 18 | 252 | 3.2 | 11.3 | 0.00 | 0.00 | 0.00 | 62 | 1013.0 |
| 20260506225043 | 19 | 266 | 4.8 | 14.5 | 0.00 | 0.00 | 0.00 | 61 | 1013.0 |
| 20260506224641 | 19 | 265 | 6.4 | 14.5 | 0.00 | 0.00 | 0.00 | 61 | 1012.9 |
| 20260506224043 | 19 | 252 | 4.8 | 16.1 | 0.00 | 0.00 | 0.00 | 61 | 1012.8 |
| 20260506223541 | 19 | 259 | 9.7 | 16.1 | 0.00 | 0.00 | 0.00 | 61 | 1012.7 |
| 20260506223042 | 19 | 261 | 9.7 | 12.9 | 0.00 | 0.00 | 0.00 | 60 | 1012.4 |
| 20260506222441 | 19 | 242 | 4.8 | 11.3 | 0.00 | 0.00 | 0.00 | 60 | 1012.4 |
| 20260506222051 | 19 | 225 | 6.4 | 11.3 | 0.00 | 0.00 | 0.00 | 60 | 1012.4 |
| 20260506221340 | 19 | 213 | 6.4 | 8.0 | 0.00 | 0.00 | 0.00 | 61 | 1012.3 |
| 20260506221042 | 19 | 210 | 3.2 | 6.4 | 0.00 | 0.00 | 0.00 | 60 | 1012.3 |
| 20260506220241 | 19 | 212 | 3.2 | 8.0 | 0.00 | 0.00 | 0.00 | 60 | 1012.3 |
| 20260506220041 | 19 | 209 | 4.8 | 8.0 | 0.00 | 0.00 | 0.00 | 60 | 1012.3 |
| 20260506215141 | 19 | 221 | 4.8 | 8.0 | 0.00 | 0.00 | 0.00 | 60 | 1012.2 |
| 20260506215044 | 19 | 233 | 6.4 | 8.0 | 0.00 | 0.00 | 0.00 | 60 | 1012.2 |
| 20260506214040 | 19 | 234 | 6.4 | 6.4 | 0.00 | 0.00 | 0.00 | 59 | 1012.1 |
| 20260506213042 | 20 | 267 | 3.2 | 6.4 | 0.00 | 0.00 | 0.00 | 59 | 1012.1 |
| 20260506212940 | 20 | 253 | 3.2 | 6.4 | 0.00 | 0.00 | 0.00 | 59 | 1012.1 |
| 20260506212042 | 20 | 230 | 4.8 | 8.0 | 0.00 | 0.00 | 0.00 | 59 | 1012.0 |
| 20260506211840 | 20 | 232 | 6.4 | 8.0 | 0.00 | 0.00 | 0.00 | 59 | 1012.1 |
| 20260506211042 | 20 | 225 | 3.2 | 8.0 | 0.00 | 0.00 | 0.00 | 58 | 1012.0 |